Tracking 19562 objects as of 21-Mar-2019
HD Live streaming from Space Station
objects crossing your sky now

COSMOS 650

Track COSMOS 650 now!
10-day predictions
COSMOS 650 is classified as:


NORAD ID: 7281
Int'l Code: 1974-028A
Perigee: 1,374.2 km
Apogee: 1,407.8 km
Inclination: 74.0 °
Period: 113.4 minutes
Semi major axis: 7761 km
RCS: 3.562 m2 (large)
Launch date: April 29, 1974
Source: Commonwealth of Independent States (former USSR) (CIS)
Launch site: PLESETSK MISSILE AND SPACE COMPLEX (PKMTR)
aabbcc
Your satellite tracking list
Your tracking list is empty




NASA's NSSDC Master Catalog

Two Line Element Set (TLE):
1  7281U 74028A   19079.89363303 -.00000032 +00000-0 -77784-4 0  9994
2  7281 074.0409 234.3491 0021641 233.8735 280.7989 12.69529314080457
Source of the keplerian elements: AFSPC